Change the Weather History Date:

Tuesday, June 3, 2014

  Actual Average Record
Temperature  
Mean Temperature 77 °F 77 °F  
Max Temperature 82 °F 83 °F 87 °F (1960)
Min Temperature 72 °F 72 °F 61 °F (1987)
Degree Days  
Heating Degree Days 0 0  
Month to date heating degree days 0 0  
Since 1 June heating degree days 0 0  
Since 1 July heating degree days 0 0  
Cooling Degree Days 12 12  
Month to date cooling degree days 38 36  
Year to date cooling degree days 1259 1275  
Since 1 June cooling degree days 38 36  
Growing Degree Days 26 (Base 50)    
Moisture  
Dew Point 70 °F    
Average Humidity 81    
Maximum Humidity 93    
Minimum Humidity 69    
Precipitation  
Precipitation T in 0.05 in 2.09 in (1991)
Month to date precipitation 1.83 0.14  
Year to date precipitation 17.62 15.98  
Snow  
Snow 0.00 in - - ()
Month to date snowfall 0.0  
Since 1 June snowfall 0.0  
Since 1 July snowfall 0.0  
Snow Depth 0.00 in    
Sea Level Pressure  
Sea Level Pressure 29.98 in    
Wind  
Wind Speed 8 mph (ENE)    
Max Wind Speed 14 mph    
Max Gust Speed 16 mph    
Visibility 10 miles    
Events Rain    
T = Trace of Precipitation, MM = Missing Value Source: NWS Daily Summary

Daily Weather History Graph

Daily Weather History Graph

Search for Another Location

Airport or City:

Trip Planner

Search our weather history database for the weather conditions in past years. The results will help you decide how hot, cold, wet, or windy it might be!

Date:

Astronomy

Jun. 03, 2014 Rise Set
Actual Time 5:53 AM HST 7:17 PM HST
Civil Twilight 5:28 AM HST 7:42 PM HST
Nautical Twilight 4:59 AM HST 8:12 PM HST
Astronomical Twilight 4:28 AM HST 8:42 PM HST
Moon 11:01 AM HST (6/3) 11:52 PM HST (6/3)
Length of Visible Light 14h 14m
Length of Day
13h 24m
Waxing Crescent, 32% of the Moon is Illuminated
Jun 3
Waxing Crescent
Jun 5
First Quarter
Jun 12
Full
Jun 19
Last Quarter
Jun 26
New

Hourly Weather History & Observations

Time (HST) Temp. Heat Index Dew Point Humidity Pressure Visibility Wind Dir Wind Speed Gust Speed Precip Events Conditions
12:06 AM 75.2 °F - 71.6 °F 89% 29.98 in 10.0 mi East 10.4 mph - N/A   Overcast
12:53 AM 75.0 °F - 70.0 °F 84% 29.97 in 10.0 mi East 6.9 mph - N/A   Overcast
1:53 AM 75.0 °F - 70.0 °F 84% 29.95 in 10.0 mi East 6.9 mph - N/A   Overcast
2:53 AM 73.9 °F - 70.0 °F 87% 29.95 in 7.0 mi ESE 8.1 mph - 0.00 in Rain Light Rain
3:03 AM 75.2 °F - 69.8 °F 83% 29.95 in 10.0 mi East 10.4 mph - 0.00 in Rain Light Rain
3:21 AM 75.2 °F - 69.8 °F 83% 29.95 in 10.0 mi East 9.2 mph - 0.00 in   Overcast
3:53 AM 75.0 °F - 69.1 °F 82% 29.95 in 10.0 mi East 9.2 mph - 0.00 in   Overcast
4:53 AM 75.0 °F - 69.1 °F 82% 29.96 in 10.0 mi Calm Calm - N/A   Overcast
5:01 AM 73.4 °F - 69.8 °F 88% 29.97 in 10.0 mi Variable 5.8 mph - N/A   Overcast
5:53 AM 72.0 °F - 69.1 °F 91% 29.97 in 10.0 mi Calm Calm - N/A   Overcast
6:50 AM 73.4 °F - 71.6 °F 94% 29.99 in 10.0 mi West 4.6 mph - N/A   Scattered Clouds
6:53 AM 73.9 °F - 71.1 °F 91% 29.99 in 10.0 mi WNW 4.6 mph - N/A   Scattered Clouds
7:03 AM 73.4 °F - 69.8 °F 88% 29.99 in 10.0 mi West 5.8 mph - N/A   Mostly Cloudy
7:48 AM 77.0 °F - 69.8 °F 78% 30.00 in 10.0 mi ENE 5.8 mph - N/A   Mostly Cloudy
7:53 AM 79.0 °F - 70.0 °F 74% 30.00 in 10.0 mi ENE 5.8 mph - N/A   Mostly Cloudy
8:53 AM 79.0 °F - 70.0 °F 74% 30.01 in 10.0 mi ENE 6.9 mph - N/A   Partly Cloudy
9:53 AM 80.1 °F 83.6 °F 71.1 °F 74% 30.01 in 10.0 mi ENE 9.2 mph - N/A   Partly Cloudy
10:53 AM 80.1 °F 83.6 °F 71.1 °F 74% 30.01 in 10.0 mi ENE 10.4 mph - N/A   Clear
11:53 AM 80.1 °F 83.6 °F 71.1 °F 74% 30.01 in 10.0 mi ENE 10.4 mph - N/A   Partly Cloudy
12:53 PM 81.0 °F 84.9 °F 71.1 °F 72% 29.99 in 10.0 mi ENE 11.5 mph - N/A   Partly Cloudy
1:53 PM 81.0 °F 84.9 °F 71.1 °F 72% 29.98 in 10.0 mi ENE 11.5 mph - N/A   Partly Cloudy
2:53 PM 81.0 °F 84.4 °F 70.0 °F 69% 29.96 in 10.0 mi NE 11.5 mph - N/A   Partly Cloudy
3:53 PM 81.0 °F 84.1 °F 69.1 °F 67% 29.96 in 10.0 mi NE 12.7 mph - N/A   Partly Cloudy
4:53 PM 80.1 °F 83.2 °F 70.0 °F 71% 29.96 in 10.0 mi NE 12.7 mph - N/A   Partly Cloudy
5:40 PM 78.8 °F - 69.8 °F 74% 29.98 in 10.0 mi NE 11.5 mph - N/A   Mostly Cloudy
5:53 PM 78.1 °F - 68.0 °F 71% 29.97 in 10.0 mi NE 11.5 mph - N/A   Scattered Clouds
6:53 PM 77.0 °F - 69.1 °F 76% 29.98 in 10.0 mi NE 9.2 mph - N/A   Partly Cloudy
7:21 PM 75.2 °F - 69.8 °F 83% 30.00 in 7.0 mi NNE 8.1 mph 19.6 mph 0.00 in Rain Light Rain
7:31 PM 75.2 °F - 69.8 °F 83% 30.00 in 10.0 mi ENE 11.5 mph - 0.00 in   Overcast
7:53 PM 75.9 °F - 70.0 °F 82% 30.00 in 10.0 mi ENE 12.7 mph - 0.00 in   Scattered Clouds
8:53 PM 75.9 °F - 69.1 °F 79% 30.01 in 10.0 mi ENE 11.5 mph - N/A   Scattered Clouds
9:53 PM 75.0 °F - 69.1 °F 82% 30.02 in 10.0 mi NE 10.4 mph - N/A   Partly Cloudy
10:53 PM 75.9 °F - 69.1 °F 79% 30.03 in 10.0 mi ENE 9.2 mph - N/A   Scattered Clouds
11:53 PM 75.9 °F - 69.1 °F 79% 30.01 in 10.0 mi NE 9.2 mph - N/A   Scattered Clouds